| time (UTC) | temp F | wind direction | speed knots | gust knots | rain 1hr in | rain 24hr in | rain mn in | humidity % | barometer mb |
| 20260904065049 | 63 | 306 | 0.0 | 0.0 | 0.00 | 0.00 | 0.00 | 99 | 1009.9 |
| 20260904064545 | 62 | 302 | 0.0 | 0.0 | 0.00 | 0.00 | 0.00 | 99 | 1010.1 |
| 20260904064044 | 62 | 292 | 0.0 | 0.0 | 0.00 | 0.00 | 0.00 | 99 | 1009.9 |
| 20260904063541 | 62 | 298 | 0.0 | 0.0 | 0.00 | 0.00 | 0.00 | 99 | 1010.1 |
| 20260904063036 | 62 | 299 | 0.0 | 0.0 | 0.00 | 0.00 | 0.00 | 99 | 1010.1 |
| 20260904062532 | 62 | 284 | 0.0 | 0.0 | 0.00 | 0.00 | 0.00 | 99 | 1010.4 |
| 20260904062027 | 62 | 300 | 0.0 | 0.0 | 0.00 | 0.00 | 0.00 | 99 | 1010.2 |
| 20260904061523 | 62 | 300 | 0.0 | 0.0 | 0.00 | 0.00 | 0.00 | 99 | 1010.4 |
| 20260904061019 | 62 | 302 | 0.0 | 0.0 | 0.00 | 0.00 | 0.00 | 99 | 1010.6 |
| 20260904060515 | 62 | 308 | 0.0 | 0.0 | 0.00 | 0.00 | 0.00 | 99 | 1010.6 |
| 20260904060011 | 62 | 302 | 0.0 | 0.0 | 0.00 | 0.00 | 0.00 | 99 | 1010.5 |
| 20260904055506 | 62 | 301 | 0.0 | 0.0 | 0.00 | 0.00 | 0.00 | 99 | 1010.4 |
| 20260904055002 | 62 | 304 | 0.0 | 0.0 | 0.00 | 0.00 | 0.00 | 99 | 1010.9 |
| 20260904054457 | 61 | 302 | 0.0 | 0.0 | 0.00 | 0.00 | 0.00 | 99 | 1010.9 |
| 20260904053953 | 61 | 320 | 0.0 | 0.0 | 0.00 | 0.00 | 0.00 | 99 | 1010.8 |
| 20260904053452 | 61 | 298 | 0.0 | 0.0 | 0.00 | 0.00 | 0.00 | 99 | 1011.1 |
| 20260904052948 | 61 | 308 | 0.0 | 0.0 | 0.00 | 0.00 | 0.00 | 99 | 1011.1 |
| 20260904052444 | 61 | 308 | 0.0 | 0.0 | 0.00 | 0.00 | 0.00 | 99 | 1011.3 |
| 20260904051940 | 61 | 311 | 0.0 | 0.0 | 0.00 | 0.00 | 0.00 | 99 | 1011.2 |
| 20260904051437 | 61 | 305 | 0.0 | 0.0 | 0.00 | 0.00 | 0.00 | 99 | 1011.3 |
| 20260904050935 | 61 | 305 | 0.0 | 0.0 | 0.00 | 0.00 | 0.00 | 99 | 1011.5 |
| 20260904050432 | 61 | 305 | 0.0 | 0.0 | 0.00 | 0.00 | 0.00 | 99 | 1011.3 |
| 20260904045932 | 61 | 311 | 0.0 | 0.0 | 0.00 | 0.00 | 0.00 | 99 | 1011.0 |
| 20260904045426 | 61 | 311 | 0.0 | 0.0 | 0.00 | 0.00 | 0.00 | 99 | 1011.2 |
| 20260904044921 | 61 | 311 | 0.0 | 0.0 | 0.00 | 0.00 | 0.00 | 99 | 1011.3 |
| 20260904044418 | 61 | 303 | 0.0 | 0.0 | 0.00 | 0.00 | 0.00 | 99 | 1011.2 |
| 20260904043913 | 61 | 303 | 0.0 | 0.0 | 0.00 | 0.00 | 0.00 | 99 | 1011.3 |
| 20260904043410 | 61 | 301 | 0.0 | 0.0 | 0.00 | 0.00 | 0.00 | 99 | 1011.4 |
| 20260904042904 | 61 | 313 | 0.0 | 0.0 | 0.00 | 0.00 | 0.00 | 99 | 1011.2 |
| 20260904042400 | 61 | 310 | 0.0 | 0.0 | 0.00 | 0.00 | 0.00 | 99 | 1011.3 |
| 20260904041856 | 61 | 301 | 0.0 | 0.0 | 0.00 | 0.00 | 0.00 | 99 | 1011.4 |
| 20260904041352 | 61 | 316 | 0.0 | 0.0 | 0.00 | 0.00 | 0.00 | 99 | 1011.4 |
| 20260904040848 | 61 | 320 | 0.0 | 0.0 | 0.00 | 0.00 | 0.00 | 99 | 1011.8 |
| 20260904040343 | 61 | 303 | 0.0 | 0.0 | 0.00 | 0.00 | 0.00 | 99 | 1011.6 |
| 20260904035839 | 61 | 307 | 0.0 | 0.0 | 0.00 | 0.07 | 0.07 | 99 | 1011.7 |
| 20260904035335 | 61 | 297 | 0.0 | 0.0 | 0.00 | 0.07 | 0.07 | 99 | 1011.7 |
| 20260904034833 | 61 | 297 | 0.0 | 0.0 | 0.00 | 0.07 | 0.07 | 99 | 1011.7 |
| 20260904034329 | 62 | 296 | 0.0 | 0.0 | 0.00 | 0.07 | 0.07 | 99 | 1011.8 |
| 20260904033825 | 62 | 319 | 0.0 | 0.0 | 0.00 | 0.07 | 0.07 | 99 | 1011.7 |
| 20260904033321 | 62 | 296 | 0.0 | 0.0 | 0.00 | 0.07 | 0.07 | 99 | 1011.7 |
| 20260904032817 | 61 | 296 | 0.0 | 0.0 | 0.00 | 0.07 | 0.07 | 99 | 1011.6 |
| 20260904032317 | 62 | 296 | 0.0 | 0.0 | 0.00 | 0.07 | 0.07 | 99 | 1011.7 |
| 20260904031811 | 62 | 296 | 0.0 | 0.0 | 0.00 | 0.07 | 0.07 | 99 | 1011.6 |
| 20260904031307 | 62 | 296 | 0.0 | 0.0 | 0.00 | 0.07 | 0.07 | 99 | 1011.4 |
| 20260904030803 | 62 | 323 | 0.0 | 0.0 | 0.00 | 0.07 | 0.07 | 99 | 1011.5 |
| 20260904030258 | 62 | 320 | 0.0 | 0.0 | 0.00 | 0.07 | 0.07 | 99 | 1011.6 |
| 20260904025754 | 63 | 305 | 0.0 | 0.0 | 0.00 | 0.07 | 0.07 | 99 | 1011.8 |
| 20260904025249 | 63 | 1 | 0.0 | 0.0 | 0.00 | 0.07 | 0.07 | 99 | 1012.0 |
| 20260904024743 | 63 | 302 | 0.0 | 0.0 | 0.00 | 0.07 | 0.07 | 99 | 1011.9 |
| 20260904024238 | 64 | 288 | 0.0 | 0.0 | 0.00 | 0.07 | 0.07 | 99 | 1012.0 |
| 20260904023730 | 64 | 307 | 0.0 | 0.0 | 0.00 | 0.07 | 0.07 | 99 | 1011.9 |
| 20260904023226 | 64 | 288 | 0.0 | 0.0 | 0.00 | 0.07 | 0.07 | 99 | 1012.3 |
| 20260904022725 | 64 | 292 | 0.0 | 0.0 | 0.00 | 0.07 | 0.07 | 99 | 1012.2 |
| 20260904022222 | 64 | 301 | 0.0 | 0.0 | 0.00 | 0.07 | 0.07 | 99 | 1012.2 |
| 20260904021718 | 64 | 274 | 0.0 | 0.0 | 0.00 | 0.07 | 0.07 | 99 | 1012.4 |
| 20260904021212 | 64 | 306 | 0.0 | 0.0 | 0.00 | 0.07 | 0.07 | 99 | 1012.3 |
| 20260904020708 | 64 | 303 | 0.0 | 0.0 | 0.00 | 0.07 | 0.07 | 99 | 1012.4 |
| 20260904020208 | 64 | 305 | 0.0 | 0.0 | 0.00 | 0.07 | 0.07 | 99 | 1012.4 |
| 20260904015706 | 64 | 296 | 0.0 | 0.0 | 0.00 | 0.07 | 0.07 | 99 | 1012.6 |
| 20260904015201 | 64 | 296 | 0.0 | 0.0 | 0.00 | 0.07 | 0.07 | 99 | 1012.5 |
| 20260904014700 | 64 | 312 | 0.0 | 0.0 | 0.00 | 0.07 | 0.07 | 99 | 1012.5 |
| 20260904014155 | 64 | 303 | 0.0 | 0.0 | 0.00 | 0.07 | 0.07 | 99 | 1012.6 |
| 20260904013652 | 64 | 303 | 0.0 | 0.0 | 0.00 | 0.07 | 0.07 | 99 | 1012.5 |
| 20260904013147 | 64 | 303 | 0.0 | 0.0 | 0.00 | 0.07 | 0.07 | 99 | 1012.4 |
| 20260904012643 | 64 | 296 | 0.0 | 0.0 | 0.00 | 0.07 | 0.07 | 99 | 1012.6 |
| 20260904012142 | 64 | 296 | 0.0 | 0.0 | 0.00 | 0.07 | 0.07 | 99 | 1012.5 |
| 20260904011641 | 64 | 303 | 0.0 | 0.0 | 0.00 | 0.07 | 0.07 | 99 | 1012.6 |
| 20260904011137 | 64 | 319 | 0.0 | 0.0 | 0.00 | 0.07 | 0.07 | 99 | 1012.3 |
| 20260904010632 | 64 | 315 | 0.0 | 0.0 | 0.00 | 0.07 | 0.07 | 99 | 1012.6 |
| 20260904010129 | 64 | 286 | 0.0 | 0.0 | 0.00 | 0.07 | 0.07 | 99 | 1012.5 |
| 20260904005624 | 64 | 304 | 0.0 | 0.0 | 0.00 | 0.07 | 0.07 | 99 | 1012.3 |
| 20260904005119 | 65 | 296 | 0.0 | 0.0 | 0.00 | 0.07 | 0.07 | 99 | 1012.7 |
| 20260904004615 | 64 | 302 | 0.0 | 0.0 | 0.00 | 0.07 | 0.07 | 99 | 1012.6 |
| 20260904004114 | 65 | 292 | 0.0 | 0.0 | 0.00 | 0.07 | 0.07 | 99 | 1012.2 |
| 20260904003611 | 64 | 294 | 0.0 | 0.0 | 0.00 | 0.07 | 0.07 | 99 | 1012.3 |
| 20260904003106 | 65 | 279 | 0.0 | 0.0 | 0.00 | 0.07 | 0.07 | 99 | 1012.2 |
| 20260904002602 | 64 | 300 | 0.0 | 0.0 | 0.00 | 0.07 | 0.07 | 99 | 1012.3 |
| 20260904002056 | 64 | 309 | 0.0 | 0.0 | 0.00 | 0.07 | 0.07 | 99 | 1012.3 |
| 20260904001552 | 65 | 320 | 0.0 | 0.0 | 0.00 | 0.07 | 0.07 | 99 | 1012.2 |
| 20260904001050 | 65 | 322 | 0.0 | 0.0 | 0.00 | 0.07 | 0.07 | 99 | 1012.3 |
| 20260904000545 | 65 | 293 | 0.0 | 0.0 | 0.00 | 0.07 | 0.07 | 99 | 1012.4 |
| 20260904000036 | 65 | 292 | 0.0 | 0.0 | 0.00 | 0.07 | 0.07 | 99 | 1012.1 |
| 20260903235536 | 65 | 324 | 0.0 | 0.0 | 0.00 | 0.07 | 0.07 | 99 | 1012.1 |
| 20260903235032 | 65 | 315 | 0.0 | 0.0 | 0.00 | 0.07 | 0.07 | 99 | 1012.2 |
| 20260903234527 | 65 | 299 | 0.0 | 0.0 | 0.00 | 0.07 | 0.07 | 99 | 1012.1 |
| 20260903234022 | 65 | 307 | 0.0 | 0.0 | 0.00 | 0.07 | 0.07 | 99 | 1012.2 |
| 20260903233518 | 65 | 299 | 0.0 | 0.0 | 0.00 | 0.07 | 0.07 | 99 | 1012.2 |
| 20260903233014 | 65 | 301 | 0.0 | 0.0 | 0.00 | 0.07 | 0.07 | 99 | 1012.4 |
| 20260903232509 | 65 | 304 | 0.0 | 0.0 | 0.00 | 0.07 | 0.07 | 99 | 1012.2 |
| 20260903232009 | 65 | 308 | 0.0 | 0.0 | 0.00 | 0.07 | 0.07 | 99 | 1012.2 |
| 20260903231503 | 65 | 298 | 0.0 | 0.0 | 0.00 | 0.07 | 0.07 | 99 | 1012.5 |
| 20260903230957 | 65 | 298 | 0.0 | 0.0 | 0.00 | 0.07 | 0.07 | 99 | 1012.5 |
| 20260903230454 | 65 | 298 | 0.0 | 0.0 | 0.00 | 0.07 | 0.07 | 99 | 1012.4 |
| 20260903225950 | 66 | 283 | 0.0 | 0.0 | 0.00 | 0.07 | 0.07 | 99 | 1012.5 |
| 20260903225445 | 66 | 325 | 0.0 | 0.0 | 0.00 | 0.07 | 0.07 | 99 | 1012.3 |
| 20260903224942 | 66 | 324 | 0.0 | 0.0 | 0.00 | 0.07 | 0.07 | 99 | 1012.5 |
| 20260903224437 | 66 | 296 | 0.0 | 0.0 | 0.00 | 0.07 | 0.07 | 98 | 1012.5 |
| 20260903223933 | 66 | 306 | 0.0 | 0.0 | 0.00 | 0.07 | 0.07 | 99 | 1012.5 |
| 20260903223432 | 66 | 315 | 0.0 | 0.0 | 0.00 | 0.07 | 0.07 | 98 | 1012.3 |
| 20260903222931 | 66 | 309 | 0.0 | 0.0 | 0.00 | 0.07 | 0.07 | 98 | 1012.5 |
| 20260903222427 | 66 | 310 | 0.0 | 0.0 | 0.00 | 0.07 | 0.07 | 97 | 1012.3 |
| 20260903221921 | 66 | 314 | 0.0 | 0.0 | 0.00 | 0.07 | 0.07 | 97 | 1012.6 |
| 20260903221420 | 66 | 308 | 0.0 | 0.0 | 0.00 | 0.07 | 0.07 | 97 | 1012.6 |
| 20260903220918 | 66 | 308 | 0.0 | 0.0 | 0.00 | 0.07 | 0.07 | 96 | 1012.5 |
| 20260903220412 | 66 | 300 | 0.0 | 0.0 | 0.00 | 0.07 | 0.07 | 97 | 1012.5 |
| 20260903215909 | 66 | 304 | 0.0 | 0.0 | 0.00 | 0.07 | 0.07 | 97 | 1012.4 |
| 20260903215407 | 66 | 308 | 0.0 | 0.0 | 0.00 | 0.07 | 0.07 | 97 | 1012.5 |
| 20260903214905 | 66 | 298 | 0.0 | 0.0 | 0.00 | 0.07 | 0.07 | 98 | 1012.5 |
| 20260903214401 | 66 | 310 | 0.0 | 0.0 | 0.00 | 0.07 | 0.07 | 96 | 1012.5 |
| 20260903213901 | 66 | 301 | 0.0 | 0.0 | 0.00 | 0.07 | 0.07 | 96 | 1012.3 |
| 20260903213356 | 66 | 314 | 0.0 | 0.0 | 0.00 | 0.07 | 0.07 | 96 | 1012.5 |
| 20260903212852 | 66 | 289 | 0.0 | 0.0 | 0.00 | 0.07 | 0.07 | 96 | 1012.4 |
| 20260903212348 | 66 | 302 | 0.0 | 0.0 | 0.00 | 0.07 | 0.07 | 96 | 1012.6 |
| 20260903211847 | 66 | 298 | 0.0 | 0.0 | 0.00 | 0.07 | 0.07 | 96 | 1012.5 |
| 20260903211343 | 66 | 299 | 0.0 | 0.0 | 0.00 | 0.07 | 0.07 | 96 | 1012.5 |
| 20260903210839 | 66 | 294 | 0.0 | 0.0 | 0.00 | 0.07 | 0.07 | 96 | 1012.6 |
| 20260903210333 | 66 | 288 | 0.0 | 0.0 | 0.00 | 0.07 | 0.07 | 97 | 1012.6 |
| 20260903205833 | 66 | 292 | 0.0 | 0.0 | 0.00 | 0.07 | 0.07 | 97 | 1012.6 |
| 20260903205333 | 66 | 304 | 0.0 | 0.0 | 0.00 | 0.07 | 0.07 | 97 | 1012.4 |
| 20260903204828 | 66 | 286 | 0.0 | 0.0 | 0.00 | 0.07 | 0.07 | 98 | 1012.7 |
| 20260903204324 | 66 | 319 | 0.0 | 0.0 | 0.00 | 0.07 | 0.07 | 97 | 1012.6 |
| 20260903203819 | 66 | 91 | 0.0 | 0.9 | 0.00 | 0.07 | 0.07 | 97 | 1012.7 |
| 20260903203315 | 66 | 295 | 0.0 | 0.0 | 0.00 | 0.07 | 0.07 | 98 | 1012.6 |
| 20260903202814 | 66 | 313 | 0.0 | 0.0 | 0.00 | 0.07 | 0.07 | 98 | 1012.8 |
| 20260903202311 | 66 | 332 | 0.0 | 0.0 | 0.00 | 0.07 | 0.07 | 98 | 1012.6 |
| 20260903201810 | 65 | 301 | 0.0 | 0.0 | 0.00 | 0.07 | 0.07 | 98 | 1012.7 |
| 20260903201305 | 66 | 272 | 0.0 | 0.9 | 0.00 | 0.07 | 0.07 | 98 | 1012.7 |
| 20260903200804 | 66 | 88 | 0.9 | 1.7 | 0.00 | 0.07 | 0.07 | 97 | 1012.7 |
| 20260903200259 | 66 | 291 | 0.0 | 0.0 | 0.00 | 0.07 | 0.07 | 98 | 1012.7 |
| 20260903195754 | 66 | 279 | 0.0 | 0.0 | 0.00 | 0.07 | 0.07 | 97 | 1012.7 |
| 20260903195250 | 66 | 268 | 0.0 | 0.0 | 0.00 | 0.07 | 0.07 | 98 | 1012.9 |
| 20260903194745 | 66 | 344 | 0.0 | 0.0 | 0.00 | 0.07 | 0.07 | 97 | 1013.2 |
| 20260903194241 | 66 | 204 | 0.9 | 0.9 | 0.00 | 0.07 | 0.07 | 97 | 1012.9 |
| 20260903193736 | 66 | 268 | 0.9 | 0.9 | 0.00 | 0.07 | 0.07 | 97 | 1012.8 |
| 20260903193232 | 66 | 21 | 0.9 | 0.9 | 0.00 | 0.07 | 0.07 | 96 | 1013.2 |
| 20260903192728 | 67 | 306 | 0.0 | 0.0 | 0.00 | 0.07 | 0.07 | 97 | 1013.2 |
| 20260903192223 | 66 | 315 | 0.0 | 0.0 | 0.00 | 0.07 | 0.07 | 97 | 1013.3 |
| 20260903191719 | 66 | 330 | 0.0 | 0.0 | 0.00 | 0.07 | 0.07 | 97 | 1013.2 |
| 20260903191214 | 66 | 307 | 0.0 | 0.0 | 0.00 | 0.07 | 0.07 | 98 | 1013.2 |
| 20260903190703 | 65 | 317 | 0.0 | 0.0 | 0.00 | 0.07 | 0.07 | 98 | 1013.3 |
| 20260903190203 | 65 | 359 | 0.0 | 0.0 | 0.00 | 0.07 | 0.07 | 99 | 1013.4 |
| 20260903185658 | 65 | 313 | 0.0 | 0.0 | 0.00 | 0.07 | 0.07 | 99 | 1013.6 |
| 20260903185153 | 65 | 335 | 0.9 | 0.9 | 0.00 | 0.07 | 0.07 | 99 | 1013.5 |
| 20260903184649 | 65 | 44 | 0.9 | 1.7 | 0.00 | 0.07 | 0.07 | 99 | 1013.5 |
| 20260903184145 | 65 | 257 | 0.9 | 0.9 | 0.00 | 0.07 | 0.07 | 99 | 1013.6 |
| 20260903183644 | 65 | 16 | 1.7 | 1.7 | 0.00 | 0.07 | 0.07 | 99 | 1013.8 |
| 20260903183139 | 64 | 340 | 0.0 | 0.0 | 0.00 | 0.07 | 0.07 | 99 | 1013.9 |
| 20260903182638 | 64 | 311 | 0.0 | 0.0 | 0.00 | 0.07 | 0.07 | 99 | 1013.9 |
| 20260903182134 | 64 | 194 | 0.0 | 0.0 | 0.00 | 0.07 | 0.07 | 99 | 1013.8 |
| 20260903181632 | 64 | 284 | 0.9 | 1.7 | 0.00 | 0.07 | 0.07 | 99 | 1014.0 |
| 20260903181127 | 64 | 311 | 0.0 | 0.9 | 0.00 | 0.07 | 0.07 | 99 | 1013.8 |
| 20260903180622 | 64 | 291 | 0.0 | 0.0 | 0.00 | 0.07 | 0.07 | 99 | 1014.0 |
| 20260903180117 | 64 | 290 | 0.9 | 0.9 | 0.00 | 0.07 | 0.07 | 99 | 1014.0 |
| 20260903175616 | 64 | 18 | 1.7 | 1.7 | 0.00 | 0.07 | 0.07 | 99 | 1014.0 |
| 20260903175115 | 64 | 16 | 0.9 | 1.7 | 0.00 | 0.07 | 0.07 | 99 | 1013.9 |
| 20260903174610 | 64 | 64 | 1.7 | 2.6 | 0.00 | 0.07 | 0.07 | 99 | 1013.7 |
| 20260903174105 | 64 | 323 | 0.0 | 0.0 | 0.00 | 0.07 | 0.07 | 99 | 1013.9 |
| 20260903173559 | 63 | 58 | 1.7 | 2.6 | 0.00 | 0.07 | 0.07 | 99 | 1013.9 |
| 20260903173056 | 64 | 188 | 0.9 | 1.7 | 0.00 | 0.07 | 0.07 | 99 | 1013.9 |
| 20260903172550 | 63 | 170 | 0.9 | 0.9 | 0.00 | 0.07 | 0.07 | 99 | 1013.8 |
| 20260903172046 | 64 | 48 | 0.9 | 0.9 | 0.00 | 0.07 | 0.07 | 99 | 1013.7 |
| 20260903171540 | 64 | 325 | 0.9 | 0.9 | 0.00 | 0.07 | 0.07 | 99 | 1013.8 |
| 20260903171036 | 64 | 7 | 0.0 | 0.9 | 0.00 | 0.07 | 0.07 | 99 | 1014.0 |
| 20260903170534 | 64 | 132 | 0.9 | 1.7 | 0.00 | 0.07 | 0.07 | 99 | 1014.0 |
| 20260903170030 | 63 | 272 | 0.9 | 0.9 | 0.00 | 0.07 | 0.07 | 99 | 1014.0 |
| 20260903165527 | 63 | 357 | 1.7 | 1.7 | 0.00 | 0.07 | 0.07 | 99 | 1014.0 |
| 20260903165023 | 63 | 49 | 0.9 | 0.9 | 0.00 | 0.07 | 0.07 | 99 | 1014.0 |
| 20260903164518 | 63 | 35 | 0.9 | 0.9 | 0.00 | 0.07 | 0.07 | 99 | 1014.1 |
| 20260903164014 | 63 | 26 | 0.0 | 0.0 | 0.00 | 0.07 | 0.07 | 99 | 1014.2 |
| 20260903163509 | 63 | 330 | 0.9 | 0.9 | 0.00 | 0.07 | 0.07 | 99 | 1014.1 |
| 20260903163005 | 63 | 36 | 1.7 | 1.7 | 0.00 | 0.07 | 0.07 | 99 | 1014.3 |
| 20260903162501 | 63 | 51 | 0.9 | 1.7 | 0.00 | 0.07 | 0.07 | 99 | 1014.4 |
| 20260903161956 | 63 | 227 | 0.9 | 0.9 | 0.00 | 0.07 | 0.07 | 99 | 1014.5 |
| 20260903161451 | 62 | 7 | 0.0 | 0.9 | 0.00 | 0.07 | 0.07 | 99 | 1014.7 |
| 20260903160948 | 63 | 2 | 0.9 | 0.9 | 0.00 | 0.07 | 0.07 | 99 | 1014.6 |
| 20260903160446 | 63 | 202 | 1.7 | 2.6 | 0.00 | 0.07 | 0.07 | 99 | 1014.8 |
| 20260903155945 | 62 | 275 | 0.9 | 0.9 | 0.00 | 0.07 | 0.07 | 99 | 1014.7 |
| 20260903155440 | 63 | 155 | 1.7 | 2.6 | 0.00 | 0.07 | 0.07 | 99 | 1014.6 |
| 20260903154935 | 63 | 27 | 0.9 | 0.9 | 0.00 | 0.07 | 0.07 | 99 | 1014.6 |
| 20260903154426 | 63 | 353 | 0.0 | 0.0 | 0.00 | 0.07 | 0.07 | 99 | 1015.0 |
| 20260903153921 | 63 | 151 | 0.0 | 0.9 | 0.00 | 0.07 | 0.07 | 99 | 1014.9 |
| 20260903153416 | 63 | 207 | 0.9 | 1.7 | 0.00 | 0.07 | 0.07 | 99 | 1015.0 |
| 20260903152913 | 63 | 321 | 0.9 | 1.7 | 0.00 | 0.07 | 0.07 | 99 | 1015.0 |
| 20260903152408 | 63 | 266 | 0.0 | 0.0 | 0.00 | 0.07 | 0.07 | 99 | 1015.2 |
| 20260903151903 | 63 | 56 | 0.9 | 0.9 | 0.00 | 0.07 | 0.07 | 99 | 1015.3 |
| 20260903151358 | 63 | 318 | 0.9 | 0.9 | 0.00 | 0.07 | 0.07 | 99 | 1015.3 |
| 20260903150852 | 63 | 39 | 1.7 | 1.7 | 0.00 | 0.07 | 0.07 | 99 | 1015.4 |
| 20260903150346 | 63 | 201 | 1.7 | 1.7 | 0.00 | 0.07 | 0.07 | 99 | 1015.3 |
| 20260903145841 | 62 | 318 | 0.9 | 1.7 | 0.00 | 0.07 | 0.07 | 99 | 1015.6 |
| 20260903145337 | 63 | 29 | 0.0 | 0.9 | 0.00 | 0.07 | 0.07 | 99 | 1015.4 |
| 20260903144836 | 62 | 299 | 0.0 | 0.0 | 0.00 | 0.07 | 0.07 | 99 | 1015.3 |
| 20260903144331 | 62 | 18 | 0.9 | 0.9 | 0.00 | 0.07 | 0.07 | 99 | 1015.4 |
| 20260903143826 | 62 | 143 | 0.0 | 0.0 | 0.00 | 0.07 | 0.07 | 99 | 1015.4 |
| 20260903143323 | 62 | 90 | 0.9 | 1.7 | 0.00 | 0.07 | 0.07 | 99 | 1015.5 |
| 20260903142819 | 62 | 177 | 0.9 | 1.7 | 0.00 | 0.07 | 0.07 | 99 | 1015.6 |
| 20260903142315 | 62 | 306 | 0.0 | 0.0 | 0.00 | 0.07 | 0.07 | 99 | 1015.6 |
| 20260903141810 | 62 | 67 | 0.9 | 0.9 | 0.00 | 0.07 | 0.07 | 99 | 1015.8 |
| 20260903141306 | 62 | 73 | 0.9 | 0.9 | 0.00 | 0.07 | 0.07 | 99 | 1015.6 |
| 20260903140806 | 62 | 304 | 0.0 | 0.0 | 0.00 | 0.07 | 0.07 | 99 | 1015.7 |
| 20260903140300 | 61 | 9 | 0.9 | 0.9 | 0.00 | 0.07 | 0.07 | 99 | 1015.7 |
| 20260903135756 | 61 | 319 | 0.0 | 0.9 | 0.00 | 0.07 | 0.07 | 99 | 1016.0 |
| 20260903135252 | 61 | 23 | 1.7 | 1.7 | 0.00 | 0.07 | 0.07 | 99 | 1015.8 |
| 20260903134750 | 61 | 322 | 0.0 | 0.0 | 0.00 | 0.07 | 0.07 | 99 | 1015.7 |
| 20260903134246 | 61 | 295 | 0.0 | 0.0 | 0.00 | 0.07 | 0.07 | 99 | 1015.9 |
| 20260903133743 | 61 | 23 | 1.7 | 1.7 | 0.00 | 0.07 | 0.07 | 99 | 1015.8 |
| 20260903133240 | 61 | 281 | 0.9 | 1.7 | 0.00 | 0.07 | 0.07 | 99 | 1015.8 |
| 20260903132740 | 61 | 32 | 0.9 | 0.9 | 0.00 | 0.07 | 0.07 | 99 | 1015.9 |
| 20260903132235 | 61 | 325 | 0.0 | 0.0 | 0.00 | 0.07 | 0.07 | 99 | 1015.8 |
| 20260903131730 | 61 | 340 | 0.0 | 0.0 | 0.00 | 0.07 | 0.07 | 99 | 1016.0 |
| 20260903131225 | 61 | 41 | 1.7 | 1.7 | 0.00 | 0.07 | 0.07 | 99 | 1015.9 |
| 20260903130725 | 61 | 252 | 0.9 | 1.7 | 0.00 | 0.07 | 0.07 | 99 | 1016.0 |
| 20260903130221 | 61 | 334 | 0.0 | 0.0 | 0.00 | 0.07 | 0.07 | 99 | 1015.8 |
| 20260903125718 | 61 | 236 | 0.9 | 0.9 | 0.00 | 0.07 | 0.07 | 99 | 1016.1 |
| 20260903125214 | 61 | 304 | 0.9 | 0.9 | 0.00 | 0.07 | 0.07 | 99 | 1016.2 |
| 20260903124713 | 61 | 14 | 1.7 | 1.7 | 0.00 | 0.07 | 0.07 | 99 | 1016.0 |
| 20260903124208 | 61 | 274 | 0.0 | 0.9 | 0.00 | 0.07 | 0.07 | 99 | 1016.2 |
| 20260903123707 | 61 | 326 | 0.0 | 0.0 | 0.05 | 0.07 | 0.07 | 99 | 1016.1 |
| 20260903123206 | 61 | 312 | 0.0 | 0.0 | 0.05 | 0.07 | 0.07 | 99 | 1016.2 |
| 20260903122700 | 61 | 305 | 0.9 | 0.9 | 0.00 | 0.06 | 0.06 | 99 | 1016.1 |
| 20260903122154 | 60 | 301 | 0.0 | 0.0 | 0.00 | 0.06 | 0.06 | 99 | 1016.5 |
| 20260903121654 | 60 | 339 | 0.0 | 0.0 | 0.00 | 0.06 | 0.06 | 99 | 1016.4 |
| 20260903121150 | 60 | 321 | 0.0 | 0.9 | 0.07 | 0.06 | 0.06 | 99 | 1016.5 |
| 20260903120649 | 60 | 321 | 0.0 | 0.0 | 0.12 | 0.06 | 0.06 | 99 | 1016.6 |
| 20260903120143 | 60 | 305 | 0.0 | 0.0 | 0.05 | 0.05 | 0.05 | 99 | 1016.7 |
| 20260903115641 | 60 | 306 | 0.0 | 0.0 | 0.00 | 0.04 | 0.04 | 99 | 1016.9 |
| 20260903115137 | 60 | 306 | 0.0 | 0.0 | 0.00 | 0.04 | 0.04 | 99 | 1016.9 |
| 20260903114632 | 60 | 298 | 0.0 | 0.0 | 0.00 | 0.04 | 0.04 | 99 | 1016.8 |
| 20260903114127 | 60 | 312 | 0.0 | 0.0 | 0.00 | 0.04 | 0.04 | 99 | 1016.7 |
| 20260903113623 | 60 | 321 | 0.0 | 0.0 | 0.00 | 0.04 | 0.04 | 99 | 1016.8 |
| 20260903113119 | 60 | 310 | 0.0 | 0.0 | 0.00 | 0.04 | 0.04 | 99 | 1016.6 |
| 20260903112615 | 60 | 308 | 0.0 | 0.0 | 0.00 | 0.04 | 0.04 | 99 | 1016.5 |
| 20260903112114 | 60 | 305 | 0.0 | 0.0 | 0.00 | 0.04 | 0.04 | 99 | 1016.4 |
| 20260903111614 | 60 | 317 | 0.0 | 0.0 | 0.00 | 0.04 | 0.04 | 99 | 1016.5 |
| 20260903111109 | 60 | 305 | 0.0 | 0.0 | 0.00 | 0.04 | 0.04 | 99 | 1016.4 |
| 20260903110605 | 60 | 324 | 0.0 | 0.0 | 0.00 | 0.04 | 0.04 | 99 | 1016.5 |
| 20260903110100 | 60 | 302 | 0.0 | 0.0 | 0.00 | 0.04 | 0.04 | 99 | 1016.3 |
| 20260903105555 | 60 | 309 | 0.0 | 0.0 | 0.00 | 0.04 | 0.04 | 99 | 1016.3 |
| 20260903105049 | 60 | 310 | 0.0 | 0.0 | 0.00 | 0.04 | 0.04 | 99 | 1016.4 |
| 20260903104544 | 60 | 310 | 0.0 | 0.0 | 0.00 | 0.04 | 0.04 | 99 | 1016.4 |
| 20260903104040 | 60 | 321 | 0.0 | 0.0 | 0.00 | 0.04 | 0.04 | 99 | 1016.6 |
| 20260903103535 | 60 | 323 | 0.0 | 0.0 | 0.00 | 0.04 | 0.04 | 99 | 1016.5 |
| 20260903103032 | 60 | 326 | 0.0 | 0.0 | 0.00 | 0.04 | 0.04 | 99 | 1016.5 |
| 20260903102527 | 60 | 306 | 0.0 | 0.0 | 0.00 | 0.04 | 0.04 | 99 | 1016.8 |
| 20260903102026 | 60 | 305 | 0.0 | 0.0 | 0.00 | 0.04 | 0.04 | 99 | 1016.8 |
| 20260903101520 | 60 | 283 | 0.0 | 0.0 | 0.00 | 0.04 | 0.04 | 99 | 1016.8 |
| 20260903101016 | 61 | 287 | 0.0 | 0.0 | 0.07 | 0.04 | 0.04 | 99 | 1016.9 |
| 20260903100510 | 61 | 308 | 0.0 | 0.0 | 0.07 | 0.04 | 0.04 | 99 | 1016.9 |
| 20260903100009 | 61 | 307 | 0.0 | 0.0 | 0.00 | 0.03 | 0.03 | 99 | 1016.7 |
| 20260903095502 | 61 | 296 | 0.0 | 0.0 | 0.00 | 0.03 | 0.03 | 99 | 1016.7 |
| 20260903094957 | 61 | 309 | 0.0 | 0.0 | 0.00 | 0.03 | 0.03 | 99 | 1016.7 |
| 20260903094457 | 61 | 292 | 0.0 | 0.0 | 0.00 | 0.03 | 0.03 | 99 | 1016.8 |
| 20260903093953 | 61 | 306 | 0.0 | 0.0 | 0.00 | 0.03 | 0.03 | 99 | 1016.6 |
| 20260903093448 | 61 | 333 | 0.0 | 0.0 | 0.00 | 0.03 | 0.03 | 99 | 1016.8 |
| 20260903092943 | 61 | 301 | 0.0 | 0.0 | 0.00 | 0.03 | 0.03 | 99 | 1016.9 |
| 20260903092437 | 61 | 317 | 0.0 | 0.0 | 0.00 | 0.03 | 0.03 | 99 | 1017.1 |
| 20260903091937 | 61 | 345 | 0.0 | 0.0 | 0.05 | 0.03 | 0.03 | 99 | 1017.3 |
| 20260903091435 | 61 | 330 | 0.0 | 0.0 | 0.12 | 0.03 | 0.03 | 99 | 1017.1 |
| 20260903090930 | 61 | 304 | 0.0 | 0.0 | 0.07 | 0.02 | 0.02 | 99 | 1017.2 |
| 20260903090426 | 61 | 307 | 0.0 | 0.0 | 0.07 | 0.02 | 0.02 | 99 | 1017.4 |
| 20260903085924 | 61 | 309 | 0.0 | 0.0 | 0.05 | 0.01 | 0.01 | 99 | 1017.3 |
| 20260903085423 | 61 | 298 | 0.0 | 0.0 | 0.00 | 0.00 | 0.00 | 99 | 1017.4 |
| 20260903084923 | 61 | 313 | 0.0 | 0.0 | 0.00 | 0.00 | 0.00 | 99 | 1017.3 |
| 20260903084421 | 61 | 300 | 0.0 | 0.0 | 0.00 | 0.00 | 0.00 | 99 | 1017.5 |
| 20260903083916 | 61 | 307 | 0.0 | 0.0 | 0.00 | 0.00 | 0.00 | 99 | 1017.4 |
| 20260903083413 | 61 | 306 | 0.0 | 0.0 | 0.00 | 0.00 | 0.00 | 99 | 1017.2 |
| 20260903082911 | 61 | 301 | 0.0 | 0.0 | 0.00 | 0.00 | 0.00 | 99 | 1017.2 |
| 20260903082407 | 61 | 313 | 0.0 | 0.0 | 0.00 | 0.00 | 0.00 | 99 | 1017.1 |
| 20260903081902 | 61 | 310 | 0.0 | 0.0 | 0.00 | 0.00 | 0.00 | 99 | 1017.0 |
| 20260903081357 | 61 | 308 | 0.0 | 0.0 | 0.00 | 0.00 | 0.00 | 99 | 1016.9 |
| 20260903080853 | 61 | 301 | 0.0 | 0.0 | 0.00 | 0.00 | 0.00 | 99 | 1017.0 |
| 20260903080350 | 61 | 312 | 0.0 | 0.0 | 0.00 | 0.00 | 0.00 | 99 | 1016.9 |
| 20260903075849 | 61 | 306 | 0.0 | 0.0 | 0.00 | 0.00 | 0.00 | 99 | 1017.1 |
| 20260903075345 | 61 | 312 | 0.0 | 0.0 | 0.00 | 0.00 | 0.00 | 99 | 1017.0 |
| 20260903074839 | 61 | 315 | 0.0 | 0.0 | 0.00 | 0.00 | 0.00 | 99 | 1017.2 |
| 20260903074333 | 61 | 312 | 0.0 | 0.0 | 0.00 | 0.00 | 0.00 | 99 | 1017.3 |
| 20260903073829 | 61 | 310 | 0.0 | 0.0 | 0.00 | 0.00 | 0.00 | 99 | 1017.4 |
| 20260903073324 | 61 | 305 | 0.0 | 0.0 | 0.00 | 0.00 | 0.00 | 99 | 1017.3 |
| 20260903072820 | 61 | 328 | 0.0 | 0.0 | 0.00 | 0.00 | 0.00 | 99 | 1017.3 |
| 20260903072316 | 61 | 7 | 0.9 | 1.7 | 0.00 | 0.00 | 0.00 | 99 | 1017.3 |
| 20260903071812 | 61 | 307 | 0.0 | 0.0 | 0.00 | 0.00 | 0.00 | 99 | 1017.4 |
| 20260903071308 | 61 | 313 | 0.0 | 0.0 | 0.00 | 0.00 | 0.00 | 99 | 1017.5 |
| 20260903070802 | 61 | 8 | 0.0 | 0.9 | 0.00 | 0.00 | 0.00 | 99 | 1017.7 |
| 20260903070258 | 61 | 6 | 0.0 | 0.9 | 0.00 | 0.00 | 0.00 | 99 | 1017.7 |
| 20260903065753 | 61 | 311 | 0.0 | 0.0 | 0.00 | 0.00 | 0.00 | 99 | 1018.0 |